N0JVW-13 Weather Reports


time (UTC)temp
C
wind
direction
speed
KPH
gust
KPH
rain 1hr
cm
rain 24hr
cm
rain mn
cm
humidity
%
barometer
mb
20260901014514 30 148 0.0 0.0 0.00 0.00 0.00 54 1011.5
20260901014100 30 148 0.0 0.0 0.00 0.00 0.00 54 1011.4
20260901013537 30 148 0.0 0.0 0.00 0.00 0.00 54 1011.3
20260901013026 30 148 0.0 0.0 0.00 0.00 0.00 54 1011.3
20260901012504 30 148 0.0 0.0 0.00 0.00 0.00 53 1011.2
20260901012048 31 148 0.0 0.0 0.00 0.00 0.00 53 1011.2
20260901011526 31 148 0.0 0.0 0.00 0.00 0.00 54 1011.1
20260901011006 31 148 0.0 0.0 0.00 0.00 0.00 54 1011.1
20260901010549 31 148 0.0 0.0 0.00 0.00 0.00 53 1011.0
20260901010042 31 148 0.0 0.0 0.00 0.00 0.00 52 1011.0
20260901005506 31 148 0.0 0.0 0.00 0.00 0.00 52 1011.0
20260901005050 31 148 0.0 0.0 0.00 0.00 0.00 52 1011.0
20260901004528 32 148 0.0 0.0 0.00 0.00 0.00 52 1011.0
20260901004008 32 148 0.0 0.0 0.00 0.00 0.00 51 1010.9
20260901003551 32 148 0.0 0.0 0.00 0.00 0.00 50 1010.9
20260901003031 32 148 0.0 0.0 0.00 0.00 0.00 50 1010.8
20260901002511 32 148 0.0 0.0 0.00 0.00 0.00 49 1010.9
20260901002054 32 148 0.0 0.0 0.00 0.00 0.00 48 1010.9
20260901001534 32 148 0.0 0.0 0.00 0.00 0.00 47 1010.8
20260901001011 32 148 0.0 0.0 0.00 0.00 0.00 47 1010.8
20260901000556 32 148 0.0 0.0 0.00 0.00 0.00 47 1010.9
20260901000034 33 148 0.0 0.0 0.00 0.00 0.00 47 1010.9
20260831235517 33 148 0.0 0.0 0.00 0.00 0.00 46 1010.9
20260831235102 33 148 0.0 0.0 0.00 0.00 0.00 46 1010.9
20260831234540 33 148 0.0 0.0 0.00 0.00 0.00 46 1010.8
20260831234017 33 148 0.0 0.0 0.00 0.00 0.00 44 1010.8
20260831233601 34 148 0.0 0.0 0.00 0.00 0.00 44 1010.9
20260831233040 34 148 0.0 1.6 0.00 0.00 0.00 44 1010.9
20260831232522 34 148 0.0 1.6 0.00 0.00 0.00 42 1010.8
20260831232103 34 143 0.0 1.6 0.00 0.00 0.00 42 1010.8
20260831231544 35 125 0.0 1.6 0.00 0.00 0.00 41 1010.8
20260831231022 35 125 0.0 1.6 0.00 0.00 0.00 41 1010.8
20260831230604 35 125 0.0 1.6 0.00 0.00 0.00 40 1010.8
20260831230048 35 128 0.0 0.0 0.00 0.00 0.00 41 1010.9
20260831225523 35 128 0.0 1.6 0.00 0.00 0.00 40 1010.8
20260831225003 35 144 0.0 3.2 0.00 0.00 0.00 40 1010.8
20260831224546 35 144 0.0 3.2 0.00 0.00 0.00 39 1010.8
20260831224030 35 143 0.0 3.2 0.00 0.00 0.00 39 1010.8
20260831223505 35 161 0.0 3.2 0.00 0.00 0.00 38 1010.8
20260831223053 35 139 0.0 1.6 0.00 0.00 0.00 39 1010.9
20260831222529 35 120 0.0 4.8 0.00 0.00 0.00 38 1010.9
20260831222008 35 162 0.0 4.8 0.00 0.00 0.00 38 1010.9
20260831221553 35 209 0.0 4.8 0.00 0.00 0.00 38 1010.9
20260831221032 35 165 0.0 4.8 0.00 0.00 0.00 39 1010.9
20260831220510 35 165 0.0 4.8 0.00 0.00 0.00 37 1010.9
20260831220054 35 161 0.0 4.8 0.00 0.00 0.00 38 1011.0
20260831215535 35 144 0.0 3.2 0.00 0.00 0.00 38 1010.9
20260831215019 35 138 0.0 8.0 0.00 0.00 0.00 39 1011.0
20260831214557 35 156 0.0 8.0 0.00 0.00 0.00 38 1011.0
20260831214038 35 142 0.0 1.6 0.00 0.00 0.00 39 1010.9
20260831213514 36 142 0.0 4.8 0.00 0.00 0.00 38 1010.8
20260831213059 36 127 1.6 4.8 0.00 0.00 0.00 37 1010.9
20260831212537 36 127 0.0 4.8 0.00 0.00 0.00 38 1010.9
20260831212017 36 165 0.0 4.8 0.00 0.00 0.00 37 1011.0
20260831211613 36 134 0.0 3.2 0.00 0.00 0.00 39 1010.9
20260831211039 36 176 0.0 4.8 0.00 0.00 0.00 38 1010.9
20260831210522 36 181 0.0 4.8 0.00 0.00 0.00 37 1010.9
20260831210105 36 215 0.0 4.8 0.00 0.00 0.00 36 1010.9
20260831205541 36 122 0.0 4.8 0.00 0.00 0.00 37 1010.9
20260831205020 36 119 0.0 4.8 0.00 0.00 0.00 37 1010.9
20260831204604 36 150 0.0 3.2 0.00 0.00 0.00 37 1011.0
20260831204044 36 83 0.0 6.4 0.00 0.00 0.00 38 1011.0
20260831203522 36 83 0.0 6.4 0.00 0.00 0.00 37 1011.0
20260831203009 36 133 0.0 3.2 0.00 0.00 0.00 38 1011.1
20260831202546 36 133 0.0 8.0 0.00 0.00 0.00 38 1011.1
20260831202028 36 169 0.0 8.0 0.00 0.00 0.00 37 1011.2
20260831201505 36 132 0.0 6.4 0.00 0.00 0.00 38 1011.2
20260831201052 36 132 0.0 4.8 0.00 0.00 0.00 39 1011.3
20260831200527 36 116 0.0 9.7 0.00 0.00 0.00 37 1011.2
20260831200016 36 116 1.6 9.7 0.00 0.00 0.00 38 1011.2
20260831195552 36 124 1.6 4.8 0.00 0.00 0.00 40 1011.2
20260831195028 35 148 0.0 4.8 0.00 0.00 0.00 39 1011.2
20260831194508 35 148 1.6 4.8 0.00 0.00 0.00 40 1011.2
20260831194052 35 158 0.0 6.4 0.00 0.00 0.00 40 1011.2
20260831193530 35 129 1.6 6.4 0.00 0.00 0.00 40 1011.3
20260831193011 35 330 0.0 3.2 0.00 0.00 0.00 38 1011.4
20260831192554 35 330 0.0 3.2 0.00 0.00 0.00 40 1011.4
20260831192034 35 330 0.0 4.8 0.00 0.00 0.00 40 1011.4
20260831191513 35 330 0.0 4.8 0.00 0.00 0.00 41 1011.4
20260831191059 35 331 0.0 4.8 0.00 0.00 0.00 41 1011.4
20260831190539 35 331 0.0 4.8 0.00 0.00 0.00 40 1011.5
20260831190017 35 330 0.0 4.8 0.00 0.00 0.00 39 1011.6
20260831185600 35 330 0.0 3.2 0.00 0.00 0.00 41 1011.5
20260831185041 35 330 0.0 4.8 0.00 0.00 0.00 41 1011.5
20260831184519 35 330 0.0 4.8 0.00 0.00 0.00 41 1011.6
20260831184104 35 330 0.0 3.2 0.00 0.00 0.00 40 1011.7
20260831183542 35 330 0.0 4.8 0.00 0.00 0.00 41 1011.8
20260831183022 35 330 0.0 4.8 0.00 0.00 0.00 40 1011.8
20260831182502 35 330 0.0 4.8 0.00 0.00 0.00 43 1011.9
20260831182046 35 330 0.0 4.8 0.00 0.00 0.00 41 1011.9
20260831181527 34 330 0.0 4.8 0.00 0.00 0.00 41 1011.9
20260831181005 34 330 1.6 4.8 0.00 0.00 0.00 42 1012.0
20260831180548 34 330 0.0 4.8 0.00 0.00 0.00 45 1012.0
20260831180027 33 330 0.0 4.8 0.00 0.00 0.00 43 1012.2
20260831175506 33 330 0.0 4.8 0.00 0.00 0.00 43 1012.1
20260831175049 33 211 0.0 3.2 0.00 0.00 0.00 46 1012.2
20260831174536 33 137 0.0 6.4 0.00 0.00 0.00 48 1012.2
20260831174011 33 169 1.6 6.4 0.00 0.00 0.00 49 1012.2
20260831173554 33 224 0.0 4.8 0.00 0.00 0.00 50 1012.3
20260831173032 32 224 0.0 4.8 0.00 0.00 0.00 52 1012.4
20260831172510 32 227 0.0 8.0 0.00 0.00 0.00 51 1012.5
20260831172053 32 107 0.0 8.0 0.00 0.00 0.00 51 1012.7
20260831171536 32 239 0.0 3.2 0.00 0.00 0.00 51 1012.6
20260831171013 32 239 0.0 3.2 0.00 0.00 0.00 51 1012.7
20260831170557 31 239 0.0 3.2 0.00 0.00 0.00 51 1012.8
20260831170037 31 264 0.0 3.2 0.00 0.00 0.00 51 1012.8
20260831165517 31 264 0.0 3.2 0.00 0.00 0.00 51 1012.9
20260831165101 31 264 0.0 4.8 0.00 0.00 0.00 54 1012.9
20260831164539 31 264 0.0 4.8 0.00 0.00 0.00 53 1012.9
20260831164019 31 241 0.0 4.8 0.00 0.00 0.00 54 1013.0
20260831163604 31 285 0.0 3.2 0.00 0.00 0.00 54 1013.0
20260831163042 31 285 0.0 4.8 0.00 0.00 0.00 53 1012.9
20260831162524 30 285 0.0 6.4 0.00 0.00 0.00 52 1013.0
20260831162000 30 325 0.0 6.4 0.00 0.00 0.00 56 1012.9
20260831161549 30 257 0.0 1.6 0.00 0.00 0.00 55 1013.0
20260831161024 30 257 0.0 3.2 0.00 0.00 0.00 55 1013.0
20260831160502 30 257 0.0 3.2 0.00 0.00 0.00 54 1012.9
20260831160046 30 163 0.0 3.2 0.00 0.00 0.00 54 1012.9
20260831155526 30 165 0.0 3.2 0.00 0.00 0.00 56 1013.0
20260831155006 29 254 0.0 1.6 0.00 0.00 0.00 56 1012.9
20260831154553 29 254 0.0 1.6 0.00 0.00 0.00 57 1012.9
20260831154029 29 153 0.0 1.6 0.00 0.00 0.00 58 1013.0
20260831153506 28 274 0.0 1.6 0.00 0.00 0.00 59 1012.9
20260831153053 28 127 0.0 1.6 0.00 0.00 0.00 60 1013.0
20260831152531 28 110 0.0 4.8 0.00 0.00 0.00 59 1013.1
20260831152009 28 110 0.0 4.8 0.00 0.00 0.00 61 1013.0
20260831151558 28 137 0.0 3.2 0.00 0.00 0.00 63 1013.1
20260831151035 28 149 0.0 3.2 0.00 0.00 0.00 63 1013.0
20260831150512 28 147 0.0 3.2 0.00 0.00 0.00 64 1012.9
20260831150056 27 165 0.0 1.6 0.00 0.00 0.00 66 1012.9
20260831145535 27 142 0.0 4.8 0.00 0.00 0.00 64 1013.0
20260831145017 27 141 0.0 4.8 0.00 0.00 0.00 65 1012.9
20260831144644 27 156 0.0 4.8 0.00 0.00 0.00 65 1013.0
20260831144038 27 147 0.0 4.8 0.00 0.00 0.00 66 1013.0
20260831143522 26 155 0.0 4.8 0.00 0.00 0.00 67 1013.0
20260831143104 26 165 0.0 4.8 0.00 0.00 0.00 68 1013.0
20260831142542 26 174 0.0 4.8 0.00 0.00 0.00 68 1013.1
20260831142019 26 150 1.6 4.8 0.00 0.00 0.00 67 1013.1
20260831141603 26 160 0.0 3.2 0.00 0.00 0.00 68 1013.1
20260831141042 26 163 0.0 3.2 0.00 0.00 0.00 69 1013.1
20260831140522 25 131 0.0 0.0 0.00 0.00 0.00 69 1013.1
20260831140010 25 164 0.0 1.6 0.00 0.00 0.00 69 1013.1
20260831135553 25 164 0.0 1.6 0.00 0.00 0.00 70 1013.1
20260831135033 25 127 0.0 1.6 0.00 0.00 0.00 70 1013.1
20260831134513 24 114 0.0 3.2 0.00 0.00 0.00 70 1013.1
20260831134055 24 156 0.0 3.2 0.00 0.00 0.00 70 1013.1
20260831133535 24 165 0.0 3.2 0.00 0.00 0.00 71 1013.1
20260831133016 24 171 0.0 3.2 0.00 0.00 0.00 70 1013.0
20260831132559 24 171 0.0 3.2 0.00 0.00 0.00 70 1013.0
20260831132039 24 170 0.0 3.2 0.00 0.00 0.00 70 1013.0
20260831131519 24 170 0.0 3.2 0.00 0.00 0.00 71 1013.0
20260831131104 24 126 0.0 3.2 0.00 0.00 0.00 70 1013.0
20260831130543 23 139 0.0 4.8 0.00 0.00 0.00 71 1012.9
20260831130023 23 113 0.0 4.8 0.00 0.00 0.00 71 1012.8
20260831125501 23 162 0.0 3.2 0.00 0.00 0.00 71 1012.7
20260831125044 23 126 0.0 4.8 0.00 0.00 0.00 71 1012.6
20260831124524 23 170 1.6 4.8 0.00 0.00 0.00 71 1012.6
20260831124004 23 173 0.0 3.2 0.00 0.00 0.00 71 1012.6
20260831123546 23 149 0.0 3.2 0.00 0.00 0.00 71 1012.6
20260831123032 23 155 0.0 3.2 0.00 0.00 0.00 71 1012.5
20260831122505 23 144 0.0 3.2 0.00 0.00 0.00 71 1012.5
20260831122049 23 158 0.0 3.2 0.00 0.00 0.00 71 1012.5
20260831121540 23 124 0.0 3.2 0.00 0.00 0.00 71 1012.5
20260831121012 23 134 0.0 3.2 0.00 0.00 0.00 71 1012.4
20260831120554 23 129 0.0 3.2 0.00 0.00 0.00 71 1012.3
20260831120037 23 128 0.0 3.2 0.00 0.00 0.00 71 1012.3
20260831115511 23 136 0.0 3.2 0.00 0.00 0.00 71 1012.4
20260831115054 23 158 0.0 4.8 0.00 0.00 0.00 71 1012.3
20260831114548 23 162 0.0 4.8 0.00 0.00 0.00 71 1012.2
20260831114014 23 131 0.0 3.2 0.00 0.00 0.00 70 1012.2
20260831113558 23 167 0.0 3.2 0.00 0.00 0.00 70 1012.2
20260831113040 23 143 0.0 3.2 0.00 0.00 0.00 70 1012.1
20260831112521 23 149 0.0 3.2 0.00 0.00 0.00 70 1012.1
20260831112101 23 134 0.0 1.6 0.00 0.00 0.00 70 1012.1
20260831111546 23 153 0.0 3.2 0.00 0.00 0.00 70 1011.9
20260831111018 23 143 0.0 3.2 0.00 0.00 0.00 70 1011.8
20260831110602 23 159 0.0 3.2 0.00 0.00 0.00 70 1011.8
20260831110041 23 141 0.0 3.2 0.00 0.00 0.00 70 1011.9
20260831105521 23 108 0.0 3.2 0.00 0.00 0.00 70 1011.8
20260831105107 23 101 0.0 3.2 0.00 0.00 0.00 70 1011.7
20260831104546 23 155 0.0 3.2 0.00 0.00 0.00 70 1011.6
20260831104023 23 122 0.0 4.8 0.00 0.00 0.00 70 1011.5
20260831103504 23 144 1.6 4.8 0.00 0.00 0.00 70 1011.4
20260831103047 23 154 0.0 3.2 0.00 0.00 0.00 70 1011.4
20260831102529 23 155 0.0 3.2 0.00 0.00 0.00 70 1011.4
20260831102006 23 139 0.0 3.2 0.00 0.00 0.00 69 1011.4
20260831101550 23 124 0.0 3.2 0.00 0.00 0.00 69 1011.4
20260831101030 23 162 0.0 3.2 0.00 0.00 0.00 69 1011.2
20260831100509 24 169 0.0 1.6 0.00 0.00 0.00 69 1011.3
20260831100115 24 145 0.0 1.6 0.00 0.00 0.00 69 1011.3
20260831095532 24 150 0.0 3.2 0.00 0.00 0.00 69 1011.3
20260831095011 24 142 0.0 3.2 0.00 0.00 0.00 68 1011.2
20260831094556 24 158 0.0 3.2 0.00 0.00 0.00 68 1011.2
20260831094034 24 169 0.0 3.2 0.00 0.00 0.00 68 1011.3
20260831093517 24 148 0.0 4.8 0.00 0.00 0.00 68 1011.3
20260831093059 24 128 0.0 4.8 0.00 0.00 0.00 67 1011.2
20260831092537 24 161 0.0 3.2 0.00 0.00 0.00 67 1011.3
20260831092022 25 137 0.0 4.8 0.00 0.00 0.00 67 1011.2
20260831091605 25 157 1.6 4.8 0.00 0.00 0.00 66 1011.2
20260831091040 25 137 0.0 4.8 0.00 0.00 0.00 66 1011.2
20260831090520 25 115 1.6 4.8 0.00 0.00 0.00 66 1011.1
20260831085542 25 158 0.0 3.2 0.00 0.00 0.00 66 1011.1
20260831085022 25 134 0.0 3.2 0.00 0.00 0.00 65 1011.1
20260831084501 25 159 0.0 3.2 0.00 0.00 0.00 65 1011.1
20260831084044 25 140 0.0 3.2 0.00 0.00 0.00 65 1011.1
20260831083524 25 155 0.0 3.2 0.00 0.00 0.00 65 1011.1
20260831083003 25 134 0.0 3.2 0.00 0.00 0.00 65 1011.2
20260831082547 25 155 0.0 3.2 0.00 0.00 0.00 65 1011.2
20260831082026 25 122 0.0 3.2 0.00 0.00 0.00 65 1011.1
20260831081506 25 141 0.0 4.8 0.00 0.00 0.00 65 1011.1
20260831081049 25 171 0.0 4.8 0.00 0.00 0.00 65 1011.0
20260831080529 25 139 0.0 3.2 0.00 0.00 0.00 65 1010.9
20260831080007 25 155 0.0 3.2 0.00 0.00 0.00 65 1010.9
20260831075551 25 136 0.0 3.2 0.00 0.00 0.00 65 1010.8
20260831075032 25 155 0.0 3.2 0.00 0.00 0.00 64 1010.8
20260831074510 25 146 0.0 3.2 0.00 0.00 0.00 65 1010.8
20260831074054 25 158 0.0 4.8 0.00 0.00 0.00 65 1010.8
20260831073534 25 129 0.0 4.8 0.00 0.00 0.00 65 1010.8
20260831073017 25 155 0.0 4.8 0.00 0.00 0.00 65 1010.7
20260831072556 25 146 0.0 3.2 0.00 0.00 0.00 65 1010.8
20260831072036 25 157 0.0 4.8 0.00 0.00 0.00 65 1010.8
20260831071518 25 155 0.0 4.8 0.00 0.00 0.00 65 1010.7
20260831071059 25 141 0.0 4.8 0.00 0.00 0.00 65 1010.7
20260831070538 25 159 0.0 4.8 0.00 0.00 0.00 64 1010.7
20260831070017 25 124 1.6 3.2 0.00 0.00 0.00 64 1010.6
20260831065603 25 133 1.6 3.2 0.00 0.00 0.00 64 1010.6
20260831065041 25 154 0.0 3.2 0.00 0.00 0.00 64 1010.7
20260831064523 25 138 0.0 4.8 0.00 0.00 0.00 63 1010.6
20260831064102 25 162 0.0 4.8 0.00 0.00 0.00 63 1010.5
20260831063542 25 139 0.0 3.2 0.00 0.00 0.00 63 1010.5
20260831063025 26 150 0.0 3.2 0.00 0.00 0.00 63 1010.5
20260831062501 26 139 0.0 3.2 0.00 0.00 0.00 63 1010.4
20260831062045 26 133 0.0 3.2 0.00 0.00 0.00 62 1010.4
20260831061525 26 128 0.0 1.6 0.00 0.00 0.00 62 1010.4
20260831061006 26 160 0.0 3.2 0.00 0.00 0.00 61 1010.3
20260831060546 26 130 0.0 3.2 0.00 0.00 0.00 61 1010.3
20260831060027 26 163 0.0 1.6 0.00 0.00 0.00 60 1010.3
20260831055505 26 158 0.0 3.2 0.00 0.00 0.00 60 1010.3
20260831055049 26 139 0.0 3.2 0.00 0.00 0.00 60 1010.2
20260831054528 26 146 0.0 3.2 0.00 0.00 0.00 60 1010.2
20260831054006 26 153 0.0 3.2 0.00 0.00 0.00 59 1010.1
20260831053550 26 153 0.0 3.2 0.00 0.00 0.00 59 1010.0
20260831053032 26 140 0.0 3.2 0.00 0.00 0.00 60 1010.1
20260831052509 26 148 0.0 3.2 0.00 0.00 0.00 59 1010.2
20260831052052 26 141 0.0 3.2 0.00 0.00 0.00 59 1010.1
20260831051531 27 132 0.0 3.2 0.00 0.00 0.00 59 1010.0
20260831051010 27 127 0.0 3.2 0.00 0.00 0.00 58 1010.0
20260831050553 27 153 0.0 1.6 0.00 0.00 0.00 58 1010.0
20260831050033 27 153 0.0 1.6 0.00 0.00 0.00 58 1010.0
20260831045513 27 146 0.0 1.6 0.00 0.00 0.00 57 1010.1
20260831045057 27 136 0.0 1.6 0.00 0.00 0.00 58 1010.1
20260831044536 27 150 0.0 0.0 0.00 0.00 0.00 57 1010.2
20260831044015 27 153 0.0 1.6 0.00 0.00 0.00 56 1010.2
20260831043558 27 162 0.0 1.6 0.00 0.00 0.00 56 1010.2
20260831043044 27 146 0.0 1.6 0.00 0.00 0.00 56 1010.1
20260831042518 27 146 0.0 1.6 0.00 0.00 0.00 56 1010.1
20260831042103 28 146 0.0 1.6 0.00 0.00 0.00 55 1010.1
20260831041553 28 124 0.0 1.6 0.00 0.00 0.00 55 1010.1
20260831041021 28 152 0.0 1.6 0.00 0.00 0.00 55 1010.2
20260831040604 28 140 0.0 1.6 0.00 0.00 0.00 54 1010.1
20260831040043 28 131 0.0 0.0 0.00 0.00 0.00 54 1010.2
20260831035524 28 129 0.0 0.0 0.00 0.00 0.00 54 1010.2
20260831035002 28 134 0.0 0.0 0.00 0.00 0.00 54 1010.2
20260831034546 28 156 0.0 1.6 0.00 0.00 0.00 54 1010.2
20260831034025 28 169 0.0 1.6 0.00 0.00 0.00 54 1010.2
20260831033508 28 144 0.0 3.2 0.00 0.00 0.00 54 1010.1
20260831033105 28 152 0.0 3.2 0.00 0.00 0.00 54 1010.1
20260831032530 28 117 0.0 3.2 0.00 0.00 0.00 54 1010.1
20260831032008 28 143 0.0 3.2 0.00 0.00 0.00 53 1010.1
20260831031554 29 136 0.0 3.2 0.00 0.00 0.00 53 1010.0
20260831031031 29 166 0.0 1.6 0.00 0.00 0.00 53 1010.0
20260831030511 29 143 0.0 3.2 0.00 0.00 0.00 53 1010.1
20260831030053 29 157 0.0 3.2 0.00 0.00 0.00 53 1010.0
20260831025533 29 146 0.0 3.2 0.00 0.00 0.00 53 1010.0
20260831025012 29 163 0.0 3.2 0.00 0.00 0.00 53 1010.0
20260831024600 29 130 0.0 3.2 0.00 0.00 0.00 53 1009.9
20260831024037 29 153 0.0 3.2 0.00 0.00 0.00 53 1009.9
20260831023515 29 149 0.0 3.2 0.00 0.00 0.00 53 1009.9
20260831023100 29 146 0.0 3.2 0.00 0.00 0.00 53 1009.8
20260831022537 29 155 0.0 1.6 0.00 0.00 0.00 53 1009.8
20260831022017 30 119 0.0 1.6 0.00 0.00 0.00 53 1009.7
20260831021600 30 140 0.0 1.6 0.00 0.00 0.00 53 1009.7
20260831021041 30 134 0.0 3.2 0.00 0.00 0.00 52 1009.7
20260831020522 30 154 0.0 3.2 0.00 0.00 0.00 52 1009.7
20260831015541 30 141 0.0 1.6 0.00 0.00 0.00 52 1009.5
20260831015020 30 150 0.0 3.2 0.00 0.00 0.00 52 1009.4